Home   Weather   Brighton   Past weeks

Flag for United Kingdom Past Weather in Brighton, England, United Kingdom — Yesterday and Last 2 Weeks

Now
25 °F

Clear.


Feels Like: 25 °F
Forecast: 30 / 42 °F
Wind: 2 mph from East

Location: London / Gatwick Airport

Current Time: Jan 20, 2017 at 2:10:54 am

Latest Report: Jan 20, 2017 at 1:20 am


Visibility: 10 mi

Pressure: 30.54 "Hg

Humidity: 100%

Dew Point: 25 °F

Location of BrightonLocation

Past Weather in Brighton — Graph

°F

Brighton Temperature Yesterday

Maximum temperature yesterday: 43 °F (at 12:20 pm)
Minimum temperature yesterday: 25 °F (at 2:50 am)
Average temperature yesterday: 33 °F

High & Low Weather Summary for the Past Weeks

 TemperatureHumidityPressure
High52 °F (Jan 7, 12:20 pm)100% (Jan 5, 5:20 am)30.69 "Hg (Jan 5, 5:20 am)
Low21 °F (Jan 18, 5:50 am)49% (Jan 17, 2:20 pm)29.27 "Hg (Jan 12, 5:50 pm)
Average39 °F89%30.25 "Hg
* Reported Jan 5 12:20 am — Jan 20 12:20 am, Brighton, Weather by CustomWeather, © 2017

Note: Actual official high and low records may vary slightly from our data, if they occured in-between our weather recording intervals... More about our weather records

Advertising

Brighton Weather History for the Previous 24 Hours

Scroll right to see more
 ConditionsComfort  
Time TempWeatherWind HumidityBarometerVisibility
12:20 am
Fri, Jan 20
27 °FClear.2 mph93%30.57 "Hg10 mi
11:50 pm
Thu, Jan 19
27 °FClear.No wind93%30.57 "Hg10 mi
11:20 pm27 °FClear.No wind93%30.57 "Hg10 mi
10:50 pm27 °FClear.2 mph93%30.57 "Hg10 mi
10:20 pm28 °FClear.5 mph93%30.57 "Hg10 mi
9:50 pm28 °FClear.3 mph93%30.57 "Hg10 mi
9:20 pm28 °FClear.3 mph93%30.57 "Hg10 mi
8:50 pm36 °FClear.9 mph75%30.57 "Hg10 mi
8:20 pm36 °FClear.8 mph75%30.57 "Hg10 mi
7:50 pm36 °FClear.13 mph75%30.57 "Hg10 mi
7:20 pm36 °FClear.12 mph75%30.57 "Hg10 mi
6:50 pm36 °FClear.8 mph75%30.57 "Hg10 mi
6:20 pm37 °FClear.6 mph75%30.57 "Hg10 mi
5:50 pm36 °FPassing clouds.8 mph81%30.57 "HgN/A
5:20 pm37 °FClear.6 mph70%30.57 "Hg10 mi
4:50 pm39 °FClear.8 mph65%30.57 "Hg10 mi
4:20 pm39 °FSunny.9 mph61%30.57 "Hg10 mi
3:50 pm41 °FSunny.8 mph61%30.57 "Hg10 mi
3:20 pm41 °FSunny.8 mph61%30.57 "Hg10 mi
2:50 pm43 °FSunny.9 mph66%30.57 "Hg10 mi
2:20 pm43 °FPassing clouds.9 mph71%30.57 "HgN/A
1:50 pm43 °FPassing clouds.10 mph71%30.60 "HgN/A
1:20 pm43 °FPassing clouds.8 mph71%30.60 "HgN/A
12:50 pm43 °FPassing clouds.8 mph71%30.60 "HgN/A
12:20 pm43 °FSunny.9 mph71%30.60 "Hg10 mi
11:50 am41 °FPassing clouds.9 mph76%30.60 "HgN/A
11:20 am41 °FPassing clouds.8 mph76%30.63 "HgN/A
10:50 am39 °FPassing clouds.6 mph81%30.63 "HgN/A
10:20 am37 °FSunny.3 mph87%30.63 "Hg10 mi
9:50 am36 °FSunny.2 mph87%30.63 "Hg10 mi
9:20 am36 °FSunny.3 mph87%30.63 "Hg10 mi
8:50 am34 °FClear.2 mph87%30.63 "Hg6 mi
8:20 am32 °FClear.No wind93%30.63 "Hg5 mi
7:50 am32 °FClear.3 mph93%30.63 "Hg4 mi
7:20 am30 °FClear.2 mph100%30.60 "Hg4 mi
6:50 am28 °FIce fog.No wind93%30.60 "Hg3 mi
6:20 am25 °FIce fog.No wind100%30.60 "Hg3 mi
5:50 am25 °FIce fog.No wind93%30.60 "Hg2 mi
5:20 am25 °FIce fog.No wind93%30.60 "Hg2 mi
4:50 am25 °FIce fog.No wind93%30.63 "Hg2 mi
4:20 am25 °FIce fog.No wind93%30.63 "Hg3 mi
3:50 am25 °FIce fog.No wind100%30.63 "Hg3 mi
3:20 am25 °FIce fog.No wind93%30.63 "Hg3 mi
2:50 am25 °FIce fog.No wind100%30.63 "Hg3 mi
2:20 am27 °FIce fog.No wind93%30.63 "Hg3 mi
Weather by CustomWeather, © 2017

See weather overviewHow to use our weather pages